#timestamp,LO_Frequency,Hit 
1501138815.4,286047028.1,N
1501138835.2,286047027.8,N
1501138855.0,286047025.0,N
1501138855.9,286047025.0,N
1501138875.8,286047026.0,N
1501138895.6,286047029.3,N
1501138915.4,286047027.6,N
1501138935.3,286047024.6,N
1501138955.1,286047024.6,N
1501138956.0,286047024.6,N
1501138975.8,286047028.1,N
1501138995.7,286047025.6,N
1501139015.5,286047025.7,N
1501139035.3,286047026.0,N
1501139055.2,286047024.6,N
1501139075.9,286047022.2,N
1501139095.7,286047025.5,N
1501139115.5,286047026.0,N
1501139135.4,286047024.5,N
1501139155.2,286047026.8,N
1501139175.0,286047023.8,N
1501139175.9,286047023.8,N
1501139195.8,286047024.4,N
1501139215.6,286047026.5,N
1501139235.4,286047025.9,N
1501139255.3,286047025.1,N
1501139275.1,286047022.5,N
1501139276.0,286047022.5,N
1501139295.8,286047019.0,N
1501139315.7,286047020.7,N
1501139335.5,286047023.8,N
1501139355.3,286047027.2,N
1501139375.2,286047022.1,N
1501139395.9,286047024.5,N
1501139415.7,286047024.7,N
1501139435.6,286047021.4,N
1501139455.4,286047022.5,N
1501139475.2,286047022.8,N
1501139495.0,286047028.4,N
1501139495.9,286047028.4,N
1501139515.8,286047025.6,N
1501139535.6,286047023.9,N
1501139555.4,286047026.6,N
1501139575.3,286047028.3,N
1501139595.1,286047027.7,N
1501139615.8,286047026.1,N
1501139635.7,286047025.3,N
1501139655.5,286047030.6,N
1501139675.3,286047032.8,N
1501139695.2,286047034.7,N
1501139715.9,286047031.3,N
1501139735.7,286047029.8,N
1501139755.6,286047028.4,N
1501139775.4,286047023.7,N
1501139795.2,286047024.5,N
1501139815.0,286047023.0,N
1501139815.9,286047023.0,N
1501139835.8,286047021.4,N
1501139855.6,286047021.2,N
1501139875.4,286047022.8,N
1501139895.3,286047022.1,N
1501139915.1,286047028.4,N
1501139916.0,286047028.4,N
1501139935.8,286047026.0,N
1501139955.7,286047024.8,N
1501139975.5,286047024.3,N
1501139995.3,286047024.2,N
1501140015.2,286047026.8,N
1501140035.9,286047024.1,N
1501140055.7,286047026.5,N
1501140075.5,286047025.6,N
1501140095.4,286047025.3,N
1501140115.2,286047029.3,N
1501140135.0,286047028.9,N
1501140135.9,286047028.9,N
1501140155.8,286047029.8,N
1501140175.6,286047029.5,N
1501140195.4,286047028.2,N
1501140215.3,286047026.6,N
1501140235.1,286047022.4,N
1501140236.0,286047022.4,N
1501140255.8,286047020.6,N
1501140275.7,286047019.3,N
1501140295.5,286047024.9,N
1501140315.3,286047024.0,N
1501140335.2,286047024.2,N
1501140355.9,286047023.9,N
1501140375.7,286047023.7,N
1501140395.6,286047020.6,N
1501140415.4,286047021.7,N
1501140435.2,286047022.4,N
1501140455.0,286047022.7,N
1501140455.9,286047022.7,N
1501140475.8,286047021.7,N
1501140495.6,286047023.5,N
1501140515.4,286047021.6,N
1501140535.3,286047019.3,N
1501140555.1,286047023.6,N
1501140556.0,286047023.6,N
1501140575.8,286047026.0,N
1501140595.7,286047027.0,N
1501140615.5,286047027.4,N
1501140635.3,286047025.7,N
1501140655.2,286047026.3,N
1501140675.9,286047026.3,N
1501140695.7,286047024.5,N
1501140715.5,286047024.6,N
1501140735.4,286047020.5,N
1501140755.2,286047025.2,N
1501140775.0,286047023.4,N
1501140775.9,286047023.4,N
1501140795.8,286047022.2,N
1501140815.6,286047026.3,N
1501140835.4,286047025.1,N
1501140855.3,286047023.8,N
1501140875.1,286047024.6,N
1501140895.8,286047022.8,N
1501140915.7,286047022.9,N
1501140935.5,286047020.6,N
1501140955.3,286047021.2,N
1501140975.2,286047022.3,N
1501140995.9,286047025.0,N
1501141015.7,286047021.2,N
1501141035.6,286047019.6,N
1501141055.4,286047018.4,N
1501141075.2,286047019.5,N
1501141095.0,286047015.8,N
1501141096.0,286047015.8,N
1501141115.8,286047014.7,N
1501141135.6,286047013.7,N
1501141155.4,286047013.5,N
1501141175.3,286047012.9,N
1501141195.1,286047014.6,N
1501141215.8,286047012.7,N
1501141235.7,286047012.1,N
1501141255.5,286047012.3,N
1501141275.3,286047013.1,N
1501141295.2,286047012.5,N
1501141315.9,286047013.5,N
1501141335.7,286047012.0,N
1501141355.6,286047011.6,N
1501141375.4,286047011.1,N
1501141395.2,286047012.9,N
1501141415.0,286047015.5,N
1501141415.9,286047015.5,N
1501141435.8,286047014.3,N
1501141455.6,286047017.7,N
1501141475.4,286047021.4,N
1501141495.3,286047023.6,N
1501141515.1,286047023.2,N
1501141535.0,286047021.4,N
1501141536.0,286047021.4,N
1501141555.8,286047018.9,N
1501141575.6,286047021.8,N
1501141595.5,286047017.3,N
1501141615.3,286047018.5,N
1501141635.1,286047016.1,N
1501141655.8,286047015.9,N
1501141675.7,286047014.4,N
1501141695.5,286047012.0,N
1501141715.3,286047015.6,N
1501141735.2,286047015.0,N
1501141755.9,286047013.6,N
1501141775.7,286047015.1,N
1501141795.6,286047015.4,N
1501141815.4,286047013.0,N
1501141835.2,286047012.5,N
1501141855.1,286047009.5,N
1501141856.0,286047009.5,N
1501141875.8,286047009.5,N
1501141895.6,286047013.2,N
1501141915.5,286047013.5,N
1501141935.3,286047015.1,N
1501141955.1,286047014.4,N
1501141975.8,286047017.8,N
1501141995.7,286047017.7,N
1501142015.5,286047019.4,N
1501142035.3,286047017.3,N
1501142055.2,286047020.9,N
1501142075.0,286047024.9,N
1501142075.9,286047024.9,N
1501142095.7,286047017.7,N
1501142115.6,286047017.9,N
1501142135.4,286047018.3,N
1501142155.2,286047017.0,N
1501142175.1,286047016.1,N
1501142176.0,286047016.1,N
1501142195.8,286047020.3,N
1501142215.6,286047019.8,N
1501142235.5,286047023.4,N
1501142255.3,286047021.5,N
1501142275.1,286047022.1,N
1501142295.9,286047022.2,N
1501142315.7,286047017.9,N
1501142335.5,286047016.3,N
1501142355.4,286047017.4,N
1501142375.2,286047018.7,N
1501142395.0,286047017.3,N
1501142395.9,286047017.3,N
